Location: Newark
(52.8300°N, 8.0000°E)
Time: 23:25:33
(UTC+00:00)

STARLINK-1102 - Pass Details

Date: 29 January 2020
Orbit: 548 x 551 km, 53.0° (Epoch: 23 February)

Event Time Altitude Azimuth Distance (km) Brightness Sun altitude
Rises 18:44:27 0° 286° (WNW) 2,728 8.5 -23.7°
Reaches altitude 10° 18:46:59 10° 273° (W) 1,831 7.4 -24.1°
Maximum altitude 18:50:22 24° 218° (SW) 1,154 5.6 -24.6°
Enters shadow 18:51:34 21° 192° (SSW) 1,258 5.5 -24.8°
